Wind_Speed
3 2 2 3 4 5 6 7 8 9 9 9 9 9 9 8 8 7 7 7 7 7 7 7 7 8 8 7 7 7 8 8 8 8 9 9 9 9 9 9 10 10 10
2 2 2 3 4 5 6 7 8 8 9 9 8 8 8 7 7 7 7 7 7 7 7 7 8 7 7 7 7 7 7 7 8 8 8 8 9 9 8 9 9 9 9
2 1 2 2 3 4 6 6 7 8 8 8 8 7 7 7 6 6 6 6 6 6 7 7 7 7 7 7 6 6 7 7 7 7 7 8 8 8 8 8 8 9 9
1 1 1 2 3 4 5 6 7 7 7 7 7 7 6 6 6 6 6 6 6 6 6 6 6 6 6 6 6 6 6 6 6 6 7 7 7 7 7 7 8 8 8
0 1 2 2 3 4 5 6 6 6 6 6 6 6 6 5 5 5 5 6 6 6 6 5 5 5 5 5 5 5 5 5 6 6 6 6 7 7 7 7 7 7 8
1 2 2 3 4 5 5 5 5 6 6 6 6 5 5 5 5 4 5 5 5 5 5 5 4 4 4 5 5 5 5 5 5 5 5 5 6 6 6 6 6 7 7
1 1 3 4 4 5 5 5 5 5 5 5 5 5 4 4 4 4 4 4 5 5 4 4 4 3 3 4 4 4 4 4 4 4 5 5 5 5 5 5 5 5 6
1 1 2 4 5 5 5 5 5 5 4 4 4 4 3 3 3 3 3 4 4 4 4 4 3 2 2 3 3 3 4 3 3 4 4 4 5 4 4 4 4 4 5
1 0 2 4 5 6 5 5 5 5 4 4 4 3 2 2 2 2 2 3 3 4 3 3 3 2 2 3 3 3 3 3 3 3 3 3 4 4 3 3 3 3 3
2 0 2 4 5 6 6 6 6 5 5 4 3 3 2 1 1 1 1 2 3 3 3 2 2 2 2 2 2 2 2 2 2 2 2 3 3 3 3 3 3 2 2
2 1 2 3 4 5 6 6 7 6 6 5 4 3 2 1 1 0 1 1 2 2 2 2 2 2 1 1 2 2 2 1 2 2 2 2 2 2 2 2 2 1 1
2 1 2 3 4 5 6 7 7 7 6 6 5 4 3 2 2 1 1 1 1 1 1 1 1 1 1 1 2 2 1 1 1 2 2 2 2 2 2 2 1 1 1
3 3 3 4 5 5 6 7 7 8 8 7 6 5 4 3 2 2 2 1 1 1 1 0 0 0 0 1 1 1 1 1 1 2 2 2 2 2 2 2 2 1 1
4 4 4 5 6 6 7 7 8 9 9 9 8 7 6 5 4 4 3 2 1 1 1 1 1 1 1 1 1 1 1 1 1 1 1 2 2 2 2 2 2 2 2
6 5 5 5 6 7 8 9 8 9 9 9 9 9 8 7 6 6 4 3 2 2 1 1 1 1 2 2 1 1 1 1 1 1 0 1 1 2 2 2 2 3 2
7 6 6 6 6 7 9 10 10 10 10 10 9 9 9 8 7 7 6 5 4 3 3 3 2 2 2 2 2 2 1 1 1 1 0 1 1 1 1 2 2 2 2
9 8 7 7 8 8 10 11 12 11 12 11 10 10 9 9 9 8 7 6 5 4 5 4 3 3 2 2 2 2 2 1 1 1 0 0 1 1 1 1 1 2 2
11 9 9 9 9 10 10 11 13 13 13 13 12 11 11 10 10 9 9 7 6 5 5 5 4 4 3 3 3 2 2 2 1 1 1 1 1 1 1 1 1 1 2
10 10 10 11 11 12 13 13 13 14 14 14 13 13 12 12 12 11 10 9 7 6 6 6 5 5 4 4 3 3 3 2 2 2 2 2 2 2 2 2 2 2 1
12 12 13 12 13 14 15 14 14 14 15 14 14 13 13 12 13 13 11 10 9 8 8 8 7 6 6 5 5 4 4 3 3 3 3 3 3 3 2 2 2 2 1
12 13 14 14 14 15 16 17 16 15 15 15 15 14 14 13 14 14 13 12 11 10 9 9 8 8 8 7 7 6 6 5 4 4 4 4 4 4 3 3 3 3 2
14 13 14 14 15 16 16 18 19 18 17 17 16 15 14 14 15 15 15 14 13 12 11 10 10 9 9 8 8 8 8 7 6 6 5 5 5 5 5 4 4 4 4
15 15 15 15 16 16 17 18 19 19 17 16 16 16 15 15 16 16 16 16 15 14 13 12 11 11 10 9 9 9 9 8 7 7 7 7 7 7 7 6 5 5 5
15 15 15 15 15 16 17 18 18 19 20 18 18 18 17 16 17 17 18 17 17 16 15 14 13 12 12 11 11 10 10 9 9 9 9 9 8 8 8 8 7 7 7
16 16 15 15 15 16 18 18 18 18 20 20 21 19 18 17 18 19 20 19 18 18 17 16 16 15 14 13 13 12 11 11 11 10 10 10 10 9 9 9 9 8 8
17 17 16 16 16 16 17 17 17 17 18 20 21 21 20 18 18 20 21 21 20 20 19 18 17 16 15 15 14 14 13 13 12 11 11 11 11 10 10 10 10 10 10
Wind_Direction
80 97 111 143 143 134 123 112 106 97 89 83 78 72 70 69 71 69 70 74 73 75 74 72 72 74 76 80 83 84 85 87 89 90 90 90 94 97 97 95 93 93 93
75 106 118 151 153 142 128 116 107 102 93 85 79 74 71 67 66 67 69 70 70 70 70 68 68 71 75 81 86 87 87 90 92 92 91 92 95 97 97 96 93 94 93
68 102 137 154 155 145 131 121 114 107 98 88 81 74 70 67 65 65 67 66 66 66 67 66 66 70 74 80 86 87 89 91 92 91 93 96 98 97 97 96 94 94 92
48 128 147 149 145 143 138 128 120 113 106 97 88 78 71 68 64 61 62 62 62 62 63 62 65 68 72 77 82 90 93 93 93 93 97 99 100 98 95 93 93 95 93
285 208 184 168 157 150 144 136 129 124 115 105 93 83 74 68 63 59 58 58 57 58 59 59 62 65 69 74 84 93 95 96 96 97 100 102 101 99 96 94 94 95 93
300 223 197 181 170 160 152 146 139 132 124 114 101 90 79 71 64 58 56 54 51 52 54 54 56 63 71 75 87 95 97 98 97 99 103 104 101 99 97 97 96 96 94
23 205 196 185 177 167 163 159 151 147 139 127 113 100 88 75 67 57 52 50 45 43 46 50 53 63 76 82 92 100 100 104 98 100 108 106 101 98 98 95 96 97 94
8 221 204 192 185 177 172 171 168 165 156 144 132 115 98 80 69 57 46 44 41 38 40 46 46 53 80 92 100 103 104 106 105 104 110 111 107 102 99 96 96 100 99
346 278 188 193 192 188 188 186 184 182 174 162 148 137 123 96 74 53 38 35 35 33 33 38 44 48 72 92 104 106 105 103 111 110 116 121 121 114 107 99 99 101 100
316 276 195 195 196 196 198 200 197 192 188 184 175 168 158 134 107 34 16 20 28 27 30 35 40 41 65 94 110 114 119 113 114 113 125 129 129 124 117 110 105 104 98
315 273 206 203 202 204 205 205 205 201 197 194 194 203 209 220 221 266 341 10 20 24 29 32 35 37 66 102 125 128 135 130 142 136 139 142 144 142 139 135 128 110 107
314 290 235 210 207 209 208 207 208 208 205 203 204 212 220 238 236 228 253 291 332 1 10 31 38 36 77 108 132 149 162 154 165 168 160 163 166 172 163 167 166 157 177
294 281 249 222 215 214 211 209 209 211 209 207 210 217 223 229 235 226 237 254 284 290 292 53 44 26 97 123 144 158 182 172 177 176 177 183 186 189 192 205 220 235 237
297 287 256 233 221 217 211 210 213 211 212 214 218 219 222 228 231 227 233 244 280 276 293 265 196 204 223 197 165 175 191 187 193 188 202 207 212 214 224 234 242 247 253
294 287 267 238 223 218 217 219 219 214 215 218 222 223 223 228 228 225 227 239 256 260 256 244 220 218 221 224 195 192 192 185 177 167 188 196 207 225 237 248 244 253 258
290 283 269 246 231 223 223 223 223 220 221 222 224 223 225 228 226 225 227 230 238 243 236 231 225 226 214 218 220 212 198 181 164 137 120 160 187 228 240 248 253 255 256
287 278 262 249 243 233 228 227 226 224 224 226 225 226 225 225 222 225 227 227 234 236 232 227 219 227 227 217 211 196 180 177 176 182 175 186 222 243 256 255 265 267 263
289 277 267 258 254 242 235 229 226 225 224 226 226 225 222 221 219 222 224 224 231 234 229 225 223 234 234 221 207 206 204 200 196 220 235 230 245 254 254 262 270 270 265
286 281 273 256 251 246 239 234 231 231 227 226 226 227 222 220 216 218 222 223 230 236 230 226 229 232 231 231 224 221 225 227 225 250 259 252 256 251 246 253 256 254 249
286 280 273 257 253 249 242 236 235 234 231 227 226 227 222 220 217 218 221 222 227 231 230 230 230 233 233 236 237 235 237 241 243 260 264 256 255 251 246 253 254 243 241
279 280 276 267 261 255 246 236 235 234 229 227 228 225 222 221 218 218 220 223 228 231 231 232 233 235 236 236 240 238 239 243 245 253 255 251 250 252 250 257 253 246 252
283 280 278 271 264 259 245 234 232 231 230 229 228 228 227 225 221 219 223 226 229 232 234 237 237 238 237 238 239 239 241 246 248 246 245 247 247 248 249 254 250 246 252
277 279 275 269 262 254 244 238 233 230 227 226 227 230 230 228 225 223 225 227 232 234 236 237 238 233 233 236 237 239 242 247 249 250 249 249 246 244 246 248 249 253 255
273 270 268 263 258 252 246 242 237 232 229 227 227 227 227 228 225 225 226 228 234 237 237 236 236 233 235 238 239 241 244 246 249 252 254 252 249 246 248 251 252 257 260
271 265 263 261 256 254 250 246 236 234 233 228 227 227 227 230 229 226 226 228 234 237 237 237 237 236 237 238 240 243 245 249 248 252 252 251 251 251 251 254 256 259 262
271 266 264 260 255 253 250 247 238 234 230 229 229 229 229 231 231 228 227 230 234 236 237 236 236 236 237 238 240 244 247 250 249 251 252 250 250 253 255 257 261 263 262
Height
5876 5876 5877 5878 5879 5879 5880 5881 5882 5883 5884 5885 5886 5887 5888 5889 5889 5890 5891 5891 5892 5892 5892 5892 5892 5892 5892 5892 5893 5893 5893 5893 5893 5893 5894 5894 5894 5895 5895 5895 5895 5896 5896
5876 5877 5878 5878 5879 5880 5880 5881 5883 5884 5885 5886 5887 5888 5889 5890 5890 5891 5892 5892 5893 5893 5893 5893 5893 5893 5893 5893 5894 5894 5894 5894 5894 5895 5895 5895 5896 5896 5896 5896 5897 5897 5897
5876 5877 5878 5878 5879 5880 5881 5882 5883 5884 5885 5887 5888 5889 5890 5891 5892 5892 5893 5893 5893 5894 5894 5894 5894 5894 5894 5895 5895 5895 5895 5895 5896 5896 5896 5897 5897 5897 5897 5898 5898 5898 5898
5876 5877 5877 5878 5879 5880 5881 5882 5884 5885 5886 5887 5888 5889 5891 5891 5892 5893 5894 5894 5894 5894 5895 5895 5895 5895 5895 5896 5896 5896 5896 5896 5897 5897 5897 5898 5898 5898 5898 5899 5899 5899 5899
5876 5876 5877 5878 5879 5880 5881 5883 5884 5885 5886 5888 5889 5890 5891 5892 5893 5894 5894 5895 5895 5895 5895 5896 5896 5896 5896 5896 5897 5897 5897 5897 5898 5898 5898 5899 5899 5899 5899 5899 5900 5900 5900
5876 5876 5877 5878 5879 5880 5881 5883 5884 5885 5887 5888 5889 5890 5891 5892 5893 5894 5895 5895 5895 5896 5896 5896 5897 5897 5897 5897 5897 5898 5898 5898 5898 5899 5899 5899 5900 5900 5900 5900 5900 5900 5900
5876 5876 5876 5877 5878 5880 5881 5883 5884 5885 5887 5888 5889 5890 5892 5893 5893 5894 5895 5895 5896 5896 5896 5897 5897 5897 5897 5898 5898 5898 5899 5899 5899 5899 5900 5900 5900 5901 5901 5901 5901 5901 5901
5876 5876 5876 5877 5878 5879 5881 5882 5884 5885 5886 5888 5889 5890 5891 5892 5893 5894 5895 5895 5896 5896 5897 5897 5897 5898 5898 5898 5898 5899 5899 5900 5900 5900 5900 5901 5901 5901 5902 5902 5902 5902 5902
5875 5875 5876 5876 5878 5879 5880 5882 5883 5885 5886 5887 5889 5890 5891 5892 5893 5894 5895 5895 5896 5897 5897 5897 5898 5898 5898 5899 5899 5899 5899 5900 5900 5901 5901 5901 5901 5902 5902 5902 5903 5903 5903
5875 5875 5875 5876 5877 5878 5880 5881 5883 5884 5885 5887 5888 5890 5891 5892 5893 5894 5895 5895 5896 5897 5897 5898 5898 5898 5898 5899 5899 5899 5900 5900 5901 5901 5901 5902 5902 5902 5903 5903 5903 5904 5904
5875 5874 5875 5876 5877 5878 5879 5880 5882 5883 5885 5886 5888 5889 5891 5892 5893 5894 5894 5895 5896 5897 5897 5898 5898 5898 5898 5899 5899 5900 5900 5900 5901 5901 5902 5902 5902 5903 5903 5903 5904 5904 5904
5874 5874 5874 5875 5876 5877 5878 5880 5881 5883 5884 5886 5887 5889 5890 5891 5892 5893 5894 5895 5896 5896 5897 5898 5898 5898 5898 5899 5900 5900 5900 5901 5901 5901 5902 5902 5903 5903 5903 5904 5904 5904 5904
5873 5873 5873 5874 5875 5876 5877 5879 5880 5881 5883 5885 5886 5888 5889 5890 5892 5893 5894 5895 5895 5896 5897 5898 5898 5898 5899 5899 5900 5900 5900 5901 5901 5901 5902 5902 5903 5903 5903 5903 5904 5904 5904
5873 5872 5873 5873 5874 5875 5876 5877 5879 5880 5882 5883 5885 5887 5888 5890 5891 5892 5893 5894 5895 5896 5896 5897 5898 5898 5899 5899 5900 5900 5900 5901 5901 5901 5901 5902 5902 5903 5903 5903 5903 5904 5904
5872 5871 5872 5872 5873 5874 5875 5876 5877 5879 5880 5882 5883 5885 5887 5888 5890 5891 5892 5893 5894 5895 5896 5896 5897 5898 5898 5899 5900 5900 5900 5901 5901 5901 5902 5902 5902 5902 5903 5903 5903 5903 5904
5870 5870 5870 5871 5871 5872 5873 5874 5876 5877 5878 5880 5882 5883 5885 5887 5888 5890 5891 5893 5894 5895 5895 5896 5897 5898 5898 5899 5900 5900 5900 5901 5901 5901 5902 5902 5902 5902 5903 5903 5903 5903 5903
5868 5868 5868 5869 5870 5870 5871 5872 5873 5875 5876 5878 5880 5881 5883 5885 5887 5888 5890 5891 5893 5894 5895 5896 5896 5897 5898 5899 5899 5900 5900 5901 5901 5901 5902 5902 5902 5902 5902 5903 5903 5903 5903
5865 5866 5866 5867 5867 5868 5869 5870 5871 5873 5874 5876 5877 5879 5881 5883 5885 5887 5889 5890 5892 5893 5894 5895 5896 5897 5897 5898 5899 5900 5900 5900 5901 5901 5901 5901 5902 5902 5902 5902 5902 5902 5903
5863 5863 5864 5864 5864 5866 5867 5867 5869 5870 5872 5873 5875 5877 5878 5880 5883 5885 5887 5889 5890 5892 5893 5894 5895 5896 5897 5898 5898 5899 5900 5900 5900 5901 5901 5901 5901 5901 5902 5902 5902 5902 5902
5860 5861 5861 5861 5861 5863 5864 5865 5866 5868 5869 5871 5873 5874 5876 5878 5881 5883 5886 5887 5889 5891 5892 5893 5894 5895 5896 5897 5898 5898 5899 5899 5900 5900 5901 5901 5901 5901 5901 5902 5902 5902 5902
5857 5857 5857 5857 5858 5859 5860 5862 5863 5865 5866 5868 5870 5872 5874 5876 5879 5881 5884 5886 5888 5889 5891 5892 5893 5894 5895 5896 5897 5897 5898 5899 5899 5900 5900 5900 5900 5901 5901 5901 5902 5902 5902
5854 5854 5854 5854 5854 5855 5856 5858 5860 5861 5863 5865 5868 5870 5872 5874 5876 5879 5882 5884 5885 5887 5889 5890 5891 5892 5893 5894 5895 5896 5897 5898 5898 5899 5899 5899 5900 5900 5900 5901 5901 5901 5901
5851 5851 5850 5850 5850 5850 5852 5853 5855 5857 5860 5862 5865 5867 5870 5871 5874 5876 5879 5881 5883 5885 5887 5888 5889 5891 5892 5893 5894 5895 5895 5896 5897 5897 5898 5898 5899 5899 5899 5900 5900 5900 5900
5847 5847 5846 5846 5846 5846 5847 5849 5851 5854 5857 5859 5861 5864 5866 5868 5871 5874 5876 5878 5881 5882 5884 5886 5887 5888 5890 5891 5892 5893 5894 5894 5895 5896 5896 5896 5897 5897 5898 5898 5899 5899 5899
5843 5842 5842 5842 5842 5843 5843 5845 5847 5849 5852 5855 5857 5860 5863 5865 5867 5870 5873 5875 5878 5879 5881 5883 5884 5886 5887 5889 5890 5891 5892 5892 5893 5894 5894 5895 5895 5896 5896 5897 5897 5897 5897
5838 5838 5838 5838 5838 5839 5839 5841 5843 5845 5847 5851 5853 5856 5859 5861 5863 5866 5869 5871 5874 5876 5878 5880 5881 5883 5885 5886 5887 5888 5889 5890 5891 5891 5892 5892 5893 5894 5894 5895 5895 5895 5895